Time,TemperatureF,DewpointF,PressureIn,WindDirection,WindDirectionDegrees,WindSpeedMPH,WindSpeedGustMPH,Humidity,HourlyPrecipIn,Conditions,Clouds,dailyrainin,SoftwareType,DateUTC
2013-12-31 00:02:00,69.1,56.8,29.74,NE,47,0.0,2.0,65,0.00,CLR,,0.00,WeatherDisplay:10.37,2013-12-30 13:02:00,
2013-12-31 00:07:00,69.0,56.8,29.74,NE,51,0.0,4.0,65,0.00,CLR,,0.00,WeatherDisplay:10.37,2013-12-30 13:07:00,
2013-12-31 00:12:00,68.9,57.1,29.74,NE,54,0.0,2.0,66,0.00,CLR,,0.00,WeatherDisplay:10.37,2013-12-30 13:12:00,
2013-12-31 00:17:00,68.7,56.9,29.74,East,80,0.0,2.0,66,0.00,CLR,,0.00,WeatherDisplay:10.37,2013-12-30 13:17:00,
2013-12-31 00:22:00,68.7,56.9,29.74,SE,128,0.0,0.0,66,0.00,CLR,,0.00,WeatherDisplay:10.37,2013-12-30 13:22:00,
2013-12-31 00:27:00,68.7,56.9,29.74,SSE,147,0.0,0.0,66,0.00,CLR,,0.00,WeatherDisplay:10.37,2013-12-30 13:27:00,
2013-12-31 00:32:00,68.5,56.7,29.74,South,178,0.0,0.0,66,0.00,CLR,,0.00,WeatherDisplay:10.37,2013-12-30 13:32:00,
2013-12-31 00:37:00,68.5,56.7,29.74,SSW,207,0.0,0.0,66,0.00,CLR,,0.00,WeatherDisplay:10.37,2013-12-30 13:37:00,
2013-12-31 00:42:00,68.4,56.6,29.74,SW,216,0.0,0.0,66,0.00,CLR,,0.00,WeatherDisplay:10.37,2013-12-30 13:42:00,
2013-12-31 00:47:00,68.2,56.8,29.74,SW,214,0.0,0.0,67,0.00,CLR,,0.00,WeatherDisplay:10.37,2013-12-30 13:47:00,
2013-12-31 00:52:00,68.2,56.8,29.74,SSW,212,0.0,0.0,67,0.00,CLR,,0.00,WeatherDisplay:10.37,2013-12-30 13:52:00,
2013-12-31 00:57:00,68.2,56.8,29.74,SSW,210,0.0,0.0,67,0.00,CLR,,0.00,WeatherDisplay:10.37,2013-12-30 13:57:00,
2013-12-31 01:02:00,67.8,56.5,29.73,SSW,205,0.0,0.0,67,0.00,CLR,,0.00,WeatherDisplay:10.37,2013-12-30 14:02:00,
2013-12-31 01:07:00,67.8,56.5,29.73,SSW,203,1.0,2.0,67,0.00,CLR,,0.00,WeatherDisplay:10.37,2013-12-30 14:07:00,
2013-12-31 01:12:00,67.6,56.7,29.74,SW,215,0.0,3.0,68,0.00,CLR,,0.00,WeatherDisplay:10.37,2013-12-30 14:12:00,
2013-12-31 01:17:00,67.6,56.7,29.73,SW,218,0.0,3.0,68,0.00,CLR,,0.00,WeatherDisplay:10.37,2013-12-30 14:17:00,
2013-12-31 01:22:00,67.3,56.4,29.73,SW,234,0.0,2.0,68,0.00,CLR,,0.00,WeatherDisplay:10.37,2013-12-30 14:22:00,
2013-12-31 01:27:00,67.3,56.4,29.73,WSW,240,0.0,2.0,68,0.00,CLR,,0.00,WeatherDisplay:10.37,2013-12-30 14:27:00,
2013-12-31 01:32:00,67.1,56.2,29.72,SW,219,0.0,2.0,68,0.00,CLR,,0.00,WeatherDisplay:10.37,2013-12-30 14:32:00,
2013-12-31 01:37:00,66.9,56.0,29.72,SSW,207,0.0,0.0,68,0.00,CLR,,0.00,WeatherDisplay:10.37,2013-12-30 14:37:00,
2013-12-31 01:42:00,66.7,55.8,29.72,SSW,203,0.0,0.0,68,0.00,CLR,,0.00,WeatherDisplay:10.37,2013-12-30 14:42:00,
2013-12-31 01:47:00,66.6,56.1,29.72,SSW,203,0.0,0.0,69,0.00,CLR,,0.00,WeatherDisplay:10.37,2013-12-30 14:47:00,
2013-12-31 01:52:00,66.4,55.9,29.72,SSW,202,0.0,0.0,69,0.00,CLR,,0.00,WeatherDisplay:10.37,2013-12-30 14:52:00,
2013-12-31 01:57:00,66.2,55.7,29.72,SSW,202,0.0,0.0,69,0.00,CLR,,0.00,WeatherDisplay:10.37,2013-12-30 14:57:00,
2013-12-31 02:02:00,66.0,55.6,29.72,SSW,202,0.0,0.0,69,0.00,CLR,,0.00,WeatherDisplay:10.37,2013-12-30 15:02:00,
2013-12-31 02:07:00,66.0,56.0,29.72,SSW,205,0.0,0.0,70,0.00,CLR,,0.00,WeatherDisplay:10.37,2013-12-30 15:07:00,
2013-12-31 02:12:00,65.8,55.8,29.72,SSW,205,0.0,0.0,70,0.00,CLR,,0.00,WeatherDisplay:10.37,2013-12-30 15:12:00,
2013-12-31 02:17:00,65.7,55.6,29.72,SSW,202,0.0,0.0,70,0.00,CLR,,0.00,WeatherDisplay:10.37,2013-12-30 15:17:00,
2013-12-31 02:22:00,65.5,55.8,29.72,SSW,202,0.0,0.0,71,0.00,CLR,,0.00,WeatherDisplay:10.37,2013-12-30 15:22:00,
2013-12-31 02:27:00,65.3,55.7,29.72,SSW,202,0.0,0.0,71,0.00,CLR,,0.00,WeatherDisplay:10.37,2013-12-30 15:27:00,
2013-12-31 02:32:00,65.2,55.2,29.72,SSW,204,0.0,0.0,70,0.00,CLR,,0.00,WeatherDisplay:10.37,2013-12-30 15:32:00,
2013-12-31 02:37:00,65.1,55.5,29.72,West,268,0.0,0.0,71,0.00,CLR,,0.00,WeatherDisplay:10.37,2013-12-30 15:37:00,
2013-12-31 02:42:00,64.9,55.3,29.72,NW,320,0.0,0.0,71,0.00,CLR,,0.00,WeatherDisplay:10.37,2013-12-30 15:42:00,
2013-12-31 02:47:00,64.8,55.1,29.72,NW,307,0.0,0.0,71,0.00,CLR,,0.00,WeatherDisplay:10.37,2013-12-30 15:47:00,
2013-12-31 02:52:00,64.8,55.1,29.72,WSW,257,0.0,0.0,71,0.00,CLR,,0.00,WeatherDisplay:10.37,2013-12-30 15:52:00,
2013-12-31 02:57:00,64.7,55.1,29.72,SW,225,0.0,0.0,71,0.00,CLR,,0.00,WeatherDisplay:10.37,2013-12-30 15:57:00,
2013-12-31 03:02:00,64.6,55.3,29.72,SW,225,0.0,0.0,72,0.00,CLR,,0.00,WeatherDisplay:10.37,2013-12-30 16:02:00,
2013-12-31 03:07:00,64.2,55.0,29.72,NW,304,0.0,0.0,72,0.00,CLR,,0.00,WeatherDisplay:10.37,2013-12-30 16:07:00,
2013-12-31 03:12:00,64.2,55.0,29.71,NNE,22,0.0,0.0,72,0.00,CLR,,0.00,WeatherDisplay:10.37,2013-12-30 16:12:00,
2013-12-31 03:17:00,64.0,54.8,29.72,NNE,22,0.0,0.0,72,0.00,CLR,,0.00,WeatherDisplay:10.37,2013-12-30 16:17:00,
2013-12-31 03:22:00,64.0,54.8,29.72,NNE,13,0.0,0.0,72,0.00,CLR,,0.00,WeatherDisplay:10.37,2013-12-30 16:22:00,
2013-12-31 03:27:00,64.0,54.8,29.72,NNW,346,0.0,0.0,72,0.00,CLR,,0.00,WeatherDisplay:10.37,2013-12-30 16:27:00,
2013-12-31 03:32:00,63.7,54.9,29.72,WSW,249,0.0,0.0,73,0.00,CLR,,0.00,WeatherDisplay:10.37,2013-12-30 16:32:00,
2013-12-31 03:37:00,63.7,54.9,29.72,SW,225,0.0,0.0,73,0.00,CLR,,0.00,WeatherDisplay:10.37,2013-12-30 16:37:00,
2013-12-31 03:42:00,63.7,54.9,29.72,SW,225,0.0,0.0,73,0.00,CLR,,0.00,WeatherDisplay:10.37,2013-12-30 16:42:00,
2013-12-31 03:47:00,63.5,54.7,29.72,SW,225,0.0,0.0,73,0.00,CLR,,0.00,WeatherDisplay:10.37,2013-12-30 16:47:00,
2013-12-31 03:52:00,63.3,54.5,29.71,SW,225,0.0,0.0,73,0.00,CLR,,0.00,WeatherDisplay:10.37,2013-12-30 16:52:00,
2013-12-31 03:57:00,63.3,54.5,29.71,SW,225,0.0,0.0,73,0.00,CLR,,0.00,WeatherDisplay:10.37,2013-12-30 16:57:00,
2013-12-31 04:02:00,63.3,54.5,29.72,SW,225,0.0,0.0,73,0.00,CLR,,0.00,WeatherDisplay:10.37,2013-12-30 17:02:00,
2013-12-31 04:07:00,63.1,54.3,29.72,SW,225,0.0,0.0,73,0.00,CLR,,0.00,WeatherDisplay:10.37,2013-12-30 17:07:00,
2013-12-31 04:12:00,63.1,54.3,29.72,SW,225,0.0,0.0,73,0.00,CLR,,0.00,WeatherDisplay:10.37,2013-12-30 17:12:00,
2013-12-31 04:17:00,63.0,54.2,29.73,SW,225,0.0,0.0,73,0.00,CLR,,0.00,WeatherDisplay:10.37,2013-12-30 17:17:00,
2013-12-31 04:22:00,62.8,54.0,29.73,SW,225,0.0,0.0,73,0.00,CLR,,0.00,WeatherDisplay:10.37,2013-12-30 17:22:00,
2013-12-31 04:27:00,62.8,54.0,29.73,SW,225,0.0,0.0,73,0.00,CLR,,0.00,WeatherDisplay:10.37,2013-12-30 17:27:00,
2013-12-31 04:32:00,62.7,54.2,29.73,SW,231,0.0,0.0,74,0.00,CLR,,0.00,WeatherDisplay:10.37,2013-12-30 17:32:00,
2013-12-31 04:37:00,62.6,54.2,29.73,SW,231,0.0,0.0,74,0.00,CLR,,0.00,WeatherDisplay:10.37,2013-12-30 17:37:00,
2013-12-31 04:42:00,62.4,54.0,29.73,SW,223,0.0,0.0,74,0.00,CLR,,0.00,WeatherDisplay:10.37,2013-12-30 17:42:00,
2013-12-31 04:47:00,62.4,54.0,29.73,SSW,210,0.0,0.0,74,0.00,CLR,,0.00,WeatherDisplay:10.37,2013-12-30 17:47:00,
2013-12-31 04:52:00,62.4,54.0,29.73,SSW,202,0.0,0.0,74,0.00,CLR,,0.00,WeatherDisplay:10.37,2013-12-30 17:52:00,
2013-12-31 04:57:00,62.3,53.9,29.73,SSW,202,0.0,0.0,74,0.00,CLR,,0.00,WeatherDisplay:10.37,2013-12-30 17:57:00,
2013-12-31 05:02:00,62.2,53.8,29.74,SSW,202,0.0,0.0,74,0.00,CLR,,0.00,WeatherDisplay:10.37,2013-12-30 18:02:00,
2013-12-31 05:07:00,62.2,53.8,29.74,SSW,209,0.0,0.0,74,0.00,CLR,,0.00,WeatherDisplay:10.37,2013-12-30 18:07:00,
2013-12-31 05:12:00,62.2,53.8,29.74,SW,219,0.0,0.0,74,0.00,CLR,,0.00,WeatherDisplay:10.37,2013-12-30 18:12:00,
2013-12-31 05:17:00,61.9,53.5,29.75,SSW,211,0.0,0.0,74,0.00,CLR,,0.00,WeatherDisplay:10.37,2013-12-30 18:17:00,
2013-12-31 05:22:00,61.9,53.5,29.75,SSW,202,0.0,0.0,74,0.00,CLR,,0.00,WeatherDisplay:10.37,2013-12-30 18:22:00,
2013-12-31 05:27:00,61.9,53.5,29.75,SSW,202,0.0,0.0,74,0.00,CLR,,0.00,WeatherDisplay:10.37,2013-12-30 18:27:00,
2013-12-31 05:32:00,61.9,53.9,29.75,SSW,202,0.0,0.0,75,0.00,CLR,,0.00,WeatherDisplay:10.37,2013-12-30 18:32:00,
2013-12-31 05:37:00,61.9,53.9,29.75,SSW,202,0.0,0.0,75,0.00,CLR,,0.00,WeatherDisplay:10.37,2013-12-30 18:37:00,
2013-12-31 05:42:00,61.9,53.8,29.75,SSW,202,0.0,0.0,75,0.00,CLR,,0.00,WeatherDisplay:10.37,2013-12-30 18:42:00,
2013-12-31 05:52:00,61.7,53.7,29.75,SSW,202,0.0,0.0,75,0.00,CLR,,0.00,WeatherDisplay:10.37,2013-12-30 18:52:00,
2013-12-31 05:57:00,61.7,53.7,29.75,SSW,202,0.0,0.0,75,0.00,CLR,,0.00,WeatherDisplay:10.37,2013-12-30 18:57:00,
2013-12-31 06:02:00,61.6,53.6,29.75,SSW,202,0.0,0.0,75,0.00,CLR,,0.00,WeatherDisplay:10.37,2013-12-30 19:02:00,
2013-12-31 06:07:00,61.7,54.1,29.75,SSW,203,0.0,0.0,76,0.00,CLR,,0.00,WeatherDisplay:10.37,2013-12-30 19:07:00,
2013-12-31 06:12:00,61.7,54.1,29.75,SSW,203,0.0,0.0,76,0.00,CLR,,0.00,WeatherDisplay:10.37,2013-12-30 19:12:00,
2013-12-31 06:17:00,61.7,54.0,29.74,SSW,202,0.0,0.0,76,0.00,CLR,,0.00,WeatherDisplay:10.37,2013-12-30 19:17:00,
2013-12-31 06:22:00,61.7,54.1,29.75,SSW,202,0.0,0.0,76,0.00,CLR,,0.00,WeatherDisplay:10.37,2013-12-30 19:22:00,
2013-12-31 06:27:00,61.8,54.2,29.75,SSW,202,0.0,0.0,76,0.00,CLR,,0.00,WeatherDisplay:10.37,2013-12-30 19:27:00,
2013-12-31 06:32:00,61.9,54.2,29.75,SSW,203,0.0,0.0,76,0.00,CLR,,0.00,WeatherDisplay:10.37,2013-12-30 19:32:00,
2013-12-31 06:37:00,61.9,54.2,29.75,SSW,203,0.0,0.0,76,0.00,CLR,,0.00,WeatherDisplay:10.37,2013-12-30 19:37:00,
2013-12-31 06:42:00,61.9,54.6,29.75,SSW,203,0.0,0.0,77,0.00,CLR,,0.00,WeatherDisplay:10.37,2013-12-30 19:42:00,
2013-12-31 06:47:00,62.2,54.9,29.75,SSW,206,0.0,0.0,77,0.00,CLR,,0.00,WeatherDisplay:10.37,2013-12-30 19:47:00,
2013-12-31 06:52:00,62.2,54.9,29.75,West,270,0.0,0.0,77,0.00,CLR,,0.00,WeatherDisplay:10.37,2013-12-30 19:52:00,
2013-12-31 06:57:00,62.4,55.1,29.75,North,360,0.0,0.0,77,0.00,CLR,,0.00,WeatherDisplay:10.37,2013-12-30 19:57:00,
2013-12-31 07:02:00,62.4,55.1,29.75,NNE,26,0.0,0.0,77,0.00,CLR,,0.00,WeatherDisplay:10.37,2013-12-30 20:02:00,
2013-12-31 07:07:00,62.6,55.3,29.75,NNE,28,0.0,0.0,77,0.00,CLR,,0.00,WeatherDisplay:10.37,2013-12-30 20:07:00,
2013-12-31 07:12:00,62.8,55.5,29.75,NE,35,0.0,0.0,77,0.00,CLR,,0.00,WeatherDisplay:10.37,2013-12-30 20:12:00,
2013-12-31 07:17:00,63.0,55.7,29.76,NE,48,0.0,0.0,77,0.00,CLR,,0.00,WeatherDisplay:10.37,2013-12-30 20:17:00,
2013-12-31 07:22:00,63.2,55.9,29.75,ENE,61,0.0,0.0,77,0.00,CLR,,0.00,WeatherDisplay:10.37,2013-12-30 20:22:00,
2013-12-31 07:27:00,63.5,56.1,29.76,NE,55,0.0,0.0,77,0.00,CLR,,0.00,WeatherDisplay:10.37,2013-12-30 20:27:00,
2013-12-31 07:32:00,63.7,56.4,29.76,NE,49,0.0,0.0,77,0.00,CLR,,0.00,WeatherDisplay:10.37,2013-12-30 20:32:00,
2013-12-31 07:37:00,64.0,57.0,29.76,NE,43,0.0,2.0,78,0.00,CLR,,0.00,WeatherDisplay:10.37,2013-12-30 20:37:00,
2013-12-31 07:42:00,64.3,57.3,29.76,NNE,29,0.0,2.0,78,0.00,CLR,,0.00,WeatherDisplay:10.37,2013-12-30 20:42:00,
2013-12-31 07:47:00,64.9,57.9,29.76,North,355,0.0,0.0,78,0.00,CLR,,0.00,WeatherDisplay:10.37,2013-12-30 20:47:00,
2013-12-31 07:52:00,65.1,58.1,29.77,NW,314,0.0,0.0,78,0.00,CLR,,0.00,WeatherDisplay:10.37,2013-12-30 20:52:00,
2013-12-31 07:57:00,65.7,58.2,29.77,NW,308,0.0,0.0,77,0.00,CLR,,0.00,WeatherDisplay:10.37,2013-12-30 20:57:00,
2013-12-31 08:02:00,66.2,58.8,29.76,NNW,332,0.0,0.0,77,0.00,CLR,,0.00,WeatherDisplay:10.37,2013-12-30 21:02:00,
2013-12-31 08:07:00,66.7,59.3,29.77,WNW,303,0.0,2.0,77,0.00,CLR,,0.00,WeatherDisplay:10.37,2013-12-30 21:07:00,
2013-12-31 08:12:00,67.6,60.1,29.77,SSW,212,0.0,2.0,77,0.00,CLR,,0.00,WeatherDisplay:10.37,2013-12-30 21:12:00,
2013-12-31 08:17:00,68.2,60.3,29.77,SW,221,0.0,2.0,76,0.00,CLR,,0.00,WeatherDisplay:10.37,2013-12-30 21:17:00,
2013-12-31 08:22:00,68.6,60.7,29.77,SE,141,0.0,0.0,76,0.00,CLR,,0.00,WeatherDisplay:10.37,2013-12-30 21:22:00,
2013-12-31 08:27:00,69.1,60.8,29.77,ENE,64,0.0,0.0,75,0.00,CLR,,0.00,WeatherDisplay:10.37,2013-12-30 21:27:00,
2013-12-31 08:32:00,69.6,61.0,29.77,NE,35,0.0,2.0,74,0.00,CLR,,0.00,WeatherDisplay:10.37,2013-12-30 21:32:00,
2013-12-31 08:37:00,70.5,61.8,29.77,North,356,0.0,2.0,74,0.00,CLR,,0.00,WeatherDisplay:10.37,2013-12-30 21:37:00,
2013-12-31 08:42:00,71.0,61.9,29.77,NNW,338,1.0,3.0,73,0.00,CLR,,0.00,WeatherDisplay:10.37,2013-12-30 21:42:00,
2013-12-31 08:47:00,71.7,62.2,29.77,West,271,1.0,3.0,72,0.00,CLR,,0.00,WeatherDisplay:10.37,2013-12-30 21:47:00,
2013-12-31 08:52:00,72.2,62.3,29.77,West,268,0.0,2.0,71,0.00,CLR,,0.00,WeatherDisplay:10.37,2013-12-30 21:52:00,
2013-12-31 08:57:00,72.6,62.2,29.77,NW,322,0.0,3.0,70,0.00,CLR,,0.00,WeatherDisplay:10.37,2013-12-30 21:57:00,
2013-12-31 09:02:00,73.2,62.4,29.77,North,3,0.0,2.0,69,0.00,CLR,,0.00,WeatherDisplay:10.37,2013-12-30 22:02:00,
2013-12-31 09:07:00,73.3,62.6,29.77,NNE,26,0.0,2.0,69,0.00,CLR,,0.00,WeatherDisplay:10.37,2013-12-30 22:07:00,
2013-12-31 09:12:00,73.9,63.1,29.77,SW,222,0.0,3.0,69,0.00,CLR,,0.00,WeatherDisplay:10.37,2013-12-30 22:12:00,
2013-12-31 09:17:00,74.5,63.2,29.76,West,261,0.0,3.0,68,0.00,CLR,,0.00,WeatherDisplay:10.37,2013-12-30 22:17:00,
2013-12-31 09:22:00,75.0,63.3,29.77,NW,323,0.0,2.0,67,0.00,CLR,,0.00,WeatherDisplay:10.37,2013-12-30 22:22:00,
2013-12-31 09:27:00,75.5,63.4,29.76,NNE,12,0.0,2.0,66,0.00,CLR,,0.00,WeatherDisplay:10.37,2013-12-30 22:27:00,
2013-12-31 09:32:00,75.9,63.2,29.76,NE,52,0.0,2.0,65,0.00,CLR,,0.00,WeatherDisplay:10.37,2013-12-30 22:32:00,
2013-12-31 09:37:00,76.1,63.0,29.76,WNW,298,1.0,4.0,64,0.00,CLR,,0.00,WeatherDisplay:10.37,2013-12-30 22:37:00,
2013-12-31 09:42:00,76.4,63.3,29.76,WNW,295,1.0,3.0,64,0.00,CLR,,0.00,WeatherDisplay:10.37,2013-12-30 22:42:00,
2013-12-31 09:52:00,77.1,63.1,29.75,North,5,0.0,4.0,62,0.00,CLR,,0.00,WeatherDisplay:10.37,2013-12-30 22:52:00,
2013-12-31 09:57:00,77.8,63.7,29.75,NNW,340,1.0,4.0,62,0.00,CLR,,0.00,WeatherDisplay:10.37,2013-12-30 22:57:00,
2013-12-31 10:02:00,78.1,63.5,29.75,North,359,0.0,2.0,61,0.00,CLR,,0.00,WeatherDisplay:10.37,2013-12-30 23:02:00,
2013-12-31 10:07:00,78.4,63.4,29.75,North,2,1.0,5.0,60,0.00,CLR,,0.00,WeatherDisplay:10.37,2013-12-30 23:07:00,
2013-12-31 10:12:00,78.8,62.8,29.75,NNE,18,3.0,7.0,58,0.00,CLR,,0.00,WeatherDisplay:10.37,2013-12-30 23:12:00,
2013-12-31 10:17:00,79.3,62.8,29.75,NNE,33,0.0,7.0,57,0.00,CLR,,0.00,WeatherDisplay:10.37,2013-12-30 23:17:00,
2013-12-31 10:22:00,79.7,63.1,29.75,NE,39,3.0,10.0,57,0.00,CLR,,0.00,WeatherDisplay:10.37,2013-12-30 23:22:00,
2013-12-31 10:27:00,79.9,62.8,29.74,NNE,27,1.0,6.0,56,0.00,CLR,,0.00,WeatherDisplay:10.37,2013-12-30 23:27:00,
2013-12-31 10:32:00,80.4,63.3,29.74,North,4,1.0,5.0,56,0.00,CLR,,0.00,WeatherDisplay:10.37,2013-12-30 23:32:00,
2013-12-31 10:37:00,81.1,63.4,29.74,NNE,19,2.0,5.0,55,0.00,CLR,,0.00,WeatherDisplay:10.37,2013-12-30 23:37:00,
2013-12-31 10:42:00,81.3,63.6,29.74,NE,38,1.0,5.0,55,0.00,CLR,,0.00,WeatherDisplay:10.37,2013-12-30 23:42:00,
2013-12-31 10:47:00,81.5,63.3,29.74,NE,42,0.0,8.0,54,0.00,CLR,,0.00,WeatherDisplay:10.37,2013-12-30 23:47:00,
2013-12-31 10:52:00,81.9,63.6,29.74,NNE,32,1.0,8.0,54,0.00,CLR,,0.00,WeatherDisplay:10.37,2013-12-30 23:52:00,
2013-12-31 10:57:00,82.2,63.9,29.74,NE,41,1.0,5.0,54,0.00,CLR,,0.00,WeatherDisplay:10.37,2013-12-30 23:57:00,
2013-12-31 11:02:00,82.6,63.8,29.74,NW,321,2.0,7.0,53,0.00,CLR,,0.00,WeatherDisplay:10.37,2013-12-31 00:02:00,
2013-12-31 11:07:00,83.7,64.2,29.73,WSW,251,2.0,6.0,52,0.00,CLR,,0.00,WeatherDisplay:10.37,2013-12-31 00:07:00,
2013-12-31 11:12:00,84.9,64.8,29.73,WSW,247,1.0,6.0,51,0.00,CLR,,0.00,WeatherDisplay:10.37,2013-12-31 00:12:00,
2013-12-31 11:17:00,85.6,64.9,29.73,WNW,298,0.0,3.0,50,0.00,CLR,,0.00,WeatherDisplay:10.37,2013-12-31 00:17:00,
2013-12-31 11:22:00,85.6,64.8,29.74,North,351,1.0,3.0,50,0.00,CLR,,0.00,WeatherDisplay:10.37,2013-12-31 00:22:00,
2013-12-31 11:27:00,85.6,64.3,29.73,NNW,343,0.0,5.0,49,0.00,CLR,,0.00,WeatherDisplay:10.37,2013-12-31 00:27:00,
2013-12-31 11:32:00,85.6,64.3,29.73,North,6,1.0,6.0,49,0.00,CLR,,0.00,WeatherDisplay:10.37,2013-12-31 00:32:00,
2013-12-31 11:37:00,85.7,64.3,29.73,NNE,16,2.0,6.0,49,0.00,CLR,,0.00,WeatherDisplay:10.37,2013-12-31 00:37:00,
2013-12-31 11:42:00,85.8,64.5,29.73,North,4,0.0,5.0,49,0.00,CLR,,0.00,WeatherDisplay:10.37,2013-12-31 00:42:00,
2013-12-31 11:47:00,86.0,64.0,29.73,NNW,338,1.0,3.0,48,0.00,CLR,,0.00,WeatherDisplay:10.37,2013-12-31 00:47:00,
2013-12-31 11:52:00,86.2,65.4,29.73,North,5,1.0,5.0,50,0.00,CLR,,0.00,WeatherDisplay:10.37,2013-12-31 00:52:00,
2013-12-31 11:57:00,85.8,65.6,29.72,South,178,2.0,7.0,51,0.00,CLR,,0.00,WeatherDisplay:10.37,2013-12-31 00:57:00,
2013-12-31 12:02:00,85.6,65.4,29.73,SW,224,1.0,6.0,51,0.00,CLR,,0.00,WeatherDisplay:10.37,2013-12-31 01:02:00,
2013-12-31 12:07:00,85.6,65.4,29.72,WSW,251,5.0,5.0,51,0.00,CLR,,0.00,WeatherDisplay:10.37,2013-12-31 01:07:00,
2013-12-31 12:12:00,85.9,65.7,29.72,SSW,204,2.0,5.0,51,0.00,CLR,,0.00,WeatherDisplay:10.37,2013-12-31 01:12:00,
2013-12-31 12:16:00,86.4,66.1,29.72,SSW,206,1.0,8.0,51,0.00,CLR,,0.00,WeatherDisplay:10.37,2013-12-31 01:16:00,
2013-12-31 12:22:00,86.5,65.6,29.72,South,181,2.0,7.0,50,0.00,CLR,,0.00,WeatherDisplay:10.37,2013-12-31 01:22:00,
2013-12-31 12:27:00,86.2,65.4,29.72,SE,142,2.0,7.0,50,0.00,CLR,,0.00,WeatherDisplay:10.37,2013-12-31 01:27:00,
2013-12-31 12:32:00,86.2,65.4,29.72,South,190,2.0,7.0,50,0.00,CLR,,0.00,WeatherDisplay:10.37,2013-12-31 01:32:00,
2013-12-31 12:37:00,86.2,65.9,29.71,SSE,150,2.0,7.0,51,0.00,CLR,,0.00,WeatherDisplay:10.37,2013-12-31 01:37:00,
2013-12-31 12:42:00,86.2,66.0,29.72,ENE,70,1.0,6.0,51,0.00,CLR,,0.00,WeatherDisplay:10.37,2013-12-31 01:42:00,
2013-12-31 12:47:00,86.4,65.5,29.71,ENE,59,1.0,6.0,50,0.00,CLR,,0.00,WeatherDisplay:10.37,2013-12-31 01:47:00,
2013-12-31 12:52:00,86.0,65.8,29.71,ESE,105,3.0,7.0,51,0.00,CLR,,0.00,WeatherDisplay:10.37,2013-12-31 01:52:00,
2013-12-31 12:57:00,85.8,65.6,29.72,ESE,117,3.0,6.0,51,0.00,CLR,,0.00,WeatherDisplay:10.37,2013-12-31 01:57:00,
2013-12-31 13:02:00,85.6,65.4,29.72,ESE,123,1.0,6.0,51,0.00,CLR,,0.00,WeatherDisplay:10.37,2013-12-31 02:02:00,
2013-12-31 13:07:00,85.6,66.0,29.71,SE,128,2.0,5.0,52,0.00,CLR,,0.00,WeatherDisplay:10.37,2013-12-31 02:07:00,
2013-12-31 13:12:00,85.6,65.4,29.71,NE,49,6.0,10.0,51,0.00,CLR,,0.00,WeatherDisplay:10.37,2013-12-31 02:12:00,
2013-12-31 13:17:00,85.6,65.4,29.71,NNE,22,2.0,10.0,51,0.00,CLR,,0.00,WeatherDisplay:10.37,2013-12-31 02:17:00,
2013-12-31 13:22:00,85.6,66.0,29.71,NW,318,5.0,7.0,52,0.00,CLR,,0.00,WeatherDisplay:10.37,2013-12-31 02:22:00,
2013-12-31 13:27:00,85.7,65.5,29.71,WSW,251,1.0,7.0,51,0.00,CLR,,0.00,WeatherDisplay:10.37,2013-12-31 02:27:00,
2013-12-31 13:32:00,86.1,65.8,29.70,SW,234,2.0,5.0,51,0.00,CLR,,0.00,WeatherDisplay:10.37,2013-12-31 02:32:00,
2013-12-31 13:37:00,86.2,65.9,29.70,NE,44,2.0,5.0,51,0.00,CLR,,0.00,WeatherDisplay:10.37,2013-12-31 02:37:00,
2013-12-31 13:42:00,86.2,65.9,29.71,NE,41,5.0,9.0,51,0.00,CLR,,0.00,WeatherDisplay:10.37,2013-12-31 02:42:00,
2013-12-31 13:47:00,86.2,65.9,29.70,NE,43,1.0,10.0,51,0.00,CLR,,0.00,WeatherDisplay:10.37,2013-12-31 02:47:00,
2013-12-31 13:51:00,85.8,65.0,29.70,ENE,65,1.0,6.0,50,0.00,CLR,,0.00,WeatherDisplay:10.37,2013-12-31 02:51:00,
2013-12-31 13:56:00,85.8,65.6,29.70,South,177,1.0,6.0,51,0.00,CLR,,0.00,WeatherDisplay:10.37,2013-12-31 02:56:00,
2013-12-31 14:02:00,86.1,65.8,29.70,ESE,122,2.0,6.0,51,0.00,CLR,,0.00,WeatherDisplay:10.37,2013-12-31 03:02:00,
2013-12-31 14:07:00,86.0,65.8,29.70,ESE,120,1.0,7.0,51,0.00,CLR,,0.00,WeatherDisplay:10.37,2013-12-31 03:07:00,
2013-12-31 14:12:00,86.2,65.9,29.70,ESE,112,3.0,9.0,51,0.00,CLR,,0.00,WeatherDisplay:10.37,2013-12-31 03:12:00,
2013-12-31 14:17:00,86.3,66.0,29.70,East,89,2.0,5.0,51,0.00,CLR,,0.00,WeatherDisplay:10.37,2013-12-31 03:17:00,
2013-12-31 14:22:00,86.2,65.4,29.70,NE,34,1.0,6.0,50,0.00,CLR,,0.00,WeatherDisplay:10.37,2013-12-31 03:22:00,
2013-12-31 14:26:00,86.4,65.5,29.69,SE,145,2.0,7.0,50,0.00,CLR,,0.00,WeatherDisplay:10.37,2013-12-31 03:26:00,
2013-12-31 14:32:00,86.5,65.7,29.70,South,182,2.0,6.0,50,0.00,CLR,,0.00,WeatherDisplay:10.37,2013-12-31 03:32:00,
2013-12-31 14:37:00,86.4,65.6,29.70,NE,54,2.0,9.0,50,0.00,CLR,,0.00,WeatherDisplay:10.37,2013-12-31 03:37:00,
2013-12-31 14:42:00,86.7,65.9,29.70,NE,50,3.0,7.0,50,0.00,CLR,,0.00,WeatherDisplay:10.37,2013-12-31 03:42:00,
2013-12-31 14:47:00,86.9,65.4,29.69,North,354,3.0,7.0,49,0.00,CLR,,0.00,WeatherDisplay:10.37,2013-12-31 03:47:00,
2013-12-31 14:52:00,87.1,65.6,29.69,NNW,330,1.0,10.0,49,0.00,CLR,,0.00,WeatherDisplay:10.37,2013-12-31 03:52:00,
2013-12-31 14:57:00,87.1,65.6,29.70,NW,324,2.0,8.0,49,0.00,CLR,,0.00,WeatherDisplay:10.37,2013-12-31 03:57:00,
2013-12-31 15:02:00,87.2,65.1,29.69,South,180,1.0,6.0,48,0.00,CLR,,0.00,WeatherDisplay:10.37,2013-12-31 04:02:00,
2013-12-31 15:07:00,87.1,65.6,29.69,NE,39,2.0,8.0,49,0.00,CLR,,0.00,WeatherDisplay:10.37,2013-12-31 04:07:00,
2013-12-31 15:12:00,86.9,65.4,29.69,ENE,59,2.0,8.0,49,0.00,CLR,,0.00,WeatherDisplay:10.37,2013-12-31 04:12:00,
2013-12-31 15:17:00,86.9,64.8,29.68,East,94,2.0,8.0,48,0.00,CLR,,0.00,WeatherDisplay:10.37,2013-12-31 04:17:00,
2013-12-31 15:22:00,86.7,65.3,29.68,ENE,65,3.0,6.0,49,0.00,CLR,,0.00,WeatherDisplay:10.37,2013-12-31 04:22:00,
2013-12-31 15:27:00,86.6,65.2,29.69,NE,54,2.0,8.0,49,0.00,CLR,,0.00,WeatherDisplay:10.37,2013-12-31 04:27:00,
2013-12-31 15:32:00,86.5,65.1,29.68,East,79,2.0,7.0,49,0.00,CLR,,0.00,WeatherDisplay:10.37,2013-12-31 04:32:00,
2013-12-31 15:37:00,86.5,65.1,29.69,SE,146,0.0,7.0,49,0.00,CLR,,0.00,WeatherDisplay:10.37,2013-12-31 04:37:00,
2013-12-31 15:42:00,86.5,65.7,29.69,NNE,28,2.0,8.0,50,0.00,CLR,,0.00,WeatherDisplay:10.37,2013-12-31 04:42:00,
2013-12-31 15:47:00,86.2,64.8,29.69,ENE,60,3.0,7.0,49,0.00,CLR,,0.00,WeatherDisplay:10.37,2013-12-31 04:47:00,
2013-12-31 15:52:00,86.0,65.2,29.69,ENE,76,2.0,6.0,50,0.00,CLR,,0.00,WeatherDisplay:10.37,2013-12-31 04:52:00,
2013-12-31 15:57:00,86.1,64.7,29.69,SSE,161,1.0,8.0,49,0.00,CLR,,0.00,WeatherDisplay:10.37,2013-12-31 04:57:00,
2013-12-31 16:02:00,86.0,64.6,29.69,SSW,194,2.0,5.0,49,0.00,CLR,,0.00,WeatherDisplay:10.37,2013-12-31 05:02:00,
2013-12-31 16:07:00,86.1,64.1,29.69,South,184,3.0,8.0,48,0.00,CLR,,0.00,WeatherDisplay:10.37,2013-12-31 05:07:00,
2013-12-31 16:12:00,85.8,63.9,29.69,SSW,203,2.0,8.0,48,0.00,CLR,,0.00,WeatherDisplay:10.37,2013-12-31 05:12:00,
2013-12-31 16:17:00,85.8,63.9,29.69,SSW,195,2.0,10.0,48,0.00,CLR,,0.00,WeatherDisplay:10.37,2013-12-31 05:17:00,
2013-12-31 16:22:00,85.6,63.7,29.69,East,92,3.0,7.0,48,0.00,CLR,,0.00,WeatherDisplay:10.37,2013-12-31 05:22:00,
2013-12-31 16:27:00,85.3,63.4,29.70,ESE,113,5.0,9.0,48,0.00,CLR,,0.00,WeatherDisplay:10.37,2013-12-31 05:27:00,
2013-12-31 16:32:00,85.0,63.1,29.70,East,93,5.0,9.0,48,0.00,CLR,,0.00,WeatherDisplay:10.37,2013-12-31 05:32:00,
2013-12-31 16:37:00,84.5,63.2,29.70,NE,46,2.0,14.0,49,0.00,CLR,,0.00,WeatherDisplay:10.37,2013-12-31 05:37:00,
2013-12-31 16:42:00,84.0,63.4,29.70,NE,52,3.0,8.0,50,0.00,CLR,,0.00,WeatherDisplay:10.37,2013-12-31 05:42:00,
2013-12-31 16:47:00,83.5,63.4,29.70,NE,46,6.0,8.0,51,0.00,CLR,,0.00,WeatherDisplay:10.37,2013-12-31 05:47:00,
2013-12-31 16:57:00,82.9,63.5,29.71,SW,216,5.0,10.0,52,0.00,CLR,,0.00,WeatherDisplay:10.37,2013-12-31 05:57:00,
2013-12-31 17:02:00,82.6,63.2,29.71,SE,141,3.0,9.0,52,0.00,CLR,,0.00,WeatherDisplay:10.37,2013-12-31 06:02:00,
2013-12-31 17:07:00,82.8,63.9,29.71,East,87,5.0,9.0,53,0.00,CLR,,0.00,WeatherDisplay:10.37,2013-12-31 06:07:00,
2013-12-31 17:12:00,82.8,63.9,29.71,NE,48,5.0,10.0,53,0.00,CLR,,0.00,WeatherDisplay:10.37,2013-12-31 06:12:00,
2013-12-31 17:17:00,82.6,63.2,29.70,NE,53,3.0,8.0,52,0.00,CLR,,0.00,WeatherDisplay:10.37,2013-12-31 06:17:00,
2013-12-31 17:22:00,82.2,63.4,29.70,East,80,1.0,5.0,53,0.00,CLR,,0.00,WeatherDisplay:10.37,2013-12-31 06:22:00,
2013-12-31 17:27:00,82.2,63.4,29.71,ENE,58,1.0,5.0,53,0.00,CLR,,0.00,WeatherDisplay:10.37,2013-12-31 06:27:00,
2013-12-31 17:32:00,82.3,64.0,29.70,NE,56,5.0,9.0,54,0.00,CLR,,0.00,WeatherDisplay:10.37,2013-12-31 06:32:00,
2013-12-31 17:37:00,82.2,63.9,29.70,ENE,72,5.0,8.0,54,0.00,CLR,,0.00,WeatherDisplay:10.37,2013-12-31 06:37:00,
2013-12-31 17:42:00,82.2,64.4,29.70,SE,124,5.0,8.0,55,0.00,CLR,,0.00,WeatherDisplay:10.37,2013-12-31 06:42:00,
2013-12-31 17:47:00,81.7,63.9,29.71,ENE,76,5.0,8.0,55,0.00,CLR,,0.00,WeatherDisplay:10.37,2013-12-31 06:47:00,
2013-12-31 17:52:00,81.6,63.8,29.71,ESE,103,5.0,10.0,55,0.00,CLR,,0.00,WeatherDisplay:10.37,2013-12-31 06:52:00,
2013-12-31 17:57:00,81.1,63.4,29.71,ESE,117,3.0,9.0,55,0.00,CLR,,0.00,WeatherDisplay:10.37,2013-12-31 06:57:00,
2013-12-31 18:02:00,81.0,63.8,29.71,SE,125,5.0,9.0,56,0.00,CLR,,0.00,WeatherDisplay:10.37,2013-12-31 07:02:00,
2013-12-31 18:07:00,80.9,64.2,29.71,SSE,150,3.0,8.0,57,0.00,CLR,,0.00,WeatherDisplay:10.37,2013-12-31 07:07:00,
2013-12-31 18:12:00,80.7,64.0,29.71,SE,141,3.0,6.0,57,0.00,CLR,,0.00,WeatherDisplay:10.37,2013-12-31 07:12:00,
2013-12-31 18:17:00,80.5,63.8,29.72,South,179,5.0,13.0,57,0.00,CLR,,0.00,WeatherDisplay:10.37,2013-12-31 07:17:00,
2013-12-31 18:22:00,80.4,63.8,29.72,SSE,160,2.0,6.0,57,0.00,CLR,,0.00,WeatherDisplay:10.37,2013-12-31 07:22:00,
2013-12-31 18:27:00,80.4,64.3,29.72,East,93,1.0,5.0,58,0.00,CLR,,0.00,WeatherDisplay:10.37,2013-12-31 07:27:00,
2013-12-31 18:32:00,80.4,63.8,29.72,East,100,5.0,9.0,57,0.00,CLR,,0.00,WeatherDisplay:10.37,2013-12-31 07:32:00,
2013-12-31 18:37:00,80.2,64.1,29.73,NE,50,2.0,9.0,58,0.00,CLR,,0.00,WeatherDisplay:10.37,2013-12-31 07:37:00,
2013-12-31 18:42:00,80.2,64.1,29.73,North,355,5.0,14.0,58,0.00,CLR,,0.00,WeatherDisplay:10.37,2013-12-31 07:42:00,
2013-12-31 18:47:00,80.1,64.0,29.74,North,355,2.0,14.0,58,0.00,CLR,,0.00,WeatherDisplay:10.37,2013-12-31 07:47:00,
2013-12-31 18:52:00,79.6,64.0,29.74,East,88,2.0,7.0,59,0.00,CLR,,0.00,WeatherDisplay:10.37,2013-12-31 07:52:00,
2013-12-31 18:57:00,79.5,64.4,29.74,NE,44,2.0,5.0,60,0.00,CLR,,0.00,WeatherDisplay:10.37,2013-12-31 07:57:00,
2013-12-31 19:02:00,79.3,64.6,29.75,NNW,342,2.0,11.0,61,0.00,CLR,,0.00,WeatherDisplay:10.37,2013-12-31 08:02:00,
2013-12-31 19:07:00,79.0,64.8,29.75,ESE,105,5.0,10.0,62,0.00,CLR,,0.00,WeatherDisplay:10.37,2013-12-31 08:07:00,
2013-12-31 19:12:00,78.6,65.0,29.75,ENE,57,2.0,7.0,63,0.00,CLR,,0.00,WeatherDisplay:10.37,2013-12-31 08:12:00,
2013-12-31 19:17:00,78.6,65.0,29.76,NE,51,3.0,7.0,63,0.00,CLR,,0.00,WeatherDisplay:10.37,2013-12-31 08:17:00,
2013-12-31 19:22:00,78.4,65.2,29.76,SE,128,3.0,6.0,64,0.00,CLR,,0.00,WeatherDisplay:10.37,2013-12-31 08:22:00,
2013-12-31 19:27:00,78.1,64.9,29.76,SE,124,2.0,9.0,64,0.00,CLR,,0.00,WeatherDisplay:10.37,2013-12-31 08:27:00,
2013-12-31 19:32:00,77.7,64.6,29.76,ENE,68,1.0,9.0,64,0.00,CLR,,0.00,WeatherDisplay:10.37,2013-12-31 08:32:00,
2013-12-31 19:37:00,77.5,64.8,29.77,East,87,1.0,6.0,65,0.00,CLR,,0.00,WeatherDisplay:10.37,2013-12-31 08:37:00,
2013-12-31 19:42:00,77.5,64.8,29.77,ESE,107,2.0,6.0,65,0.00,CLR,,0.00,WeatherDisplay:10.37,2013-12-31 08:42:00,
2013-12-31 19:47:00,77.2,65.0,29.78,SSE,168,1.0,6.0,66,0.00,CLR,,0.00,WeatherDisplay:10.37,2013-12-31 08:47:00,
2013-12-31 19:52:00,76.8,64.6,29.78,South,187,2.0,6.0,66,0.00,CLR,,0.00,WeatherDisplay:10.37,2013-12-31 08:52:00,
2013-12-31 19:57:00,76.8,64.6,29.78,SE,125,1.0,6.0,66,0.00,CLR,,0.00,WeatherDisplay:10.37,2013-12-31 08:57:00,
2013-12-31 20:02:00,76.8,65.0,29.78,ESE,113,1.0,4.0,67,0.00,CLR,,0.00,WeatherDisplay:10.37,2013-12-31 09:02:00,
2013-12-31 20:07:00,76.7,64.9,29.79,NNE,19,2.0,7.0,67,0.00,CLR,,0.00,WeatherDisplay:10.37,2013-12-31 09:07:00,
2013-12-31 20:12:00,76.6,64.9,29.80,NNW,344,1.0,3.0,67,0.00,CLR,,0.00,WeatherDisplay:10.37,2013-12-31 09:12:00,
2013-12-31 20:17:00,76.6,64.9,29.79,NNW,345,2.0,5.0,67,0.00,CLR,,0.00,WeatherDisplay:10.37,2013-12-31 09:17:00,
2013-12-31 20:22:00,76.6,64.8,29.80,NNW,348,1.0,4.0,67,0.00,CLR,,0.00,WeatherDisplay:10.37,2013-12-31 09:22:00,
2013-12-31 20:27:00,76.3,64.9,29.80,North,360,3.0,7.0,68,0.00,CLR,,0.00,WeatherDisplay:10.37,2013-12-31 09:27:00,
2013-12-31 20:32:00,76.3,64.9,29.80,North,8,0.0,5.0,68,0.00,CLR,,0.00,WeatherDisplay:10.37,2013-12-31 09:32:00,
2013-12-31 20:37:00,76.3,64.9,29.81,ENE,74,0.0,2.0,68,0.00,CLR,,0.00,WeatherDisplay:10.37,2013-12-31 09:37:00,
2013-12-31 20:42:00,76.3,64.9,29.81,ENE,78,1.0,4.0,68,0.00,CLR,,0.00,WeatherDisplay:10.37,2013-12-31 09:42:00,
2013-12-31 20:47:00,76.2,64.9,29.82,East,79,1.0,5.0,68,0.00,CLR,,0.00,WeatherDisplay:10.37,2013-12-31 09:47:00,
2013-12-31 20:52:00,76.1,64.8,29.82,East,88,0.0,2.0,68,0.00,CLR,,0.00,WeatherDisplay:10.37,2013-12-31 09:52:00,
2013-12-31 20:57:00,76.1,64.8,29.82,West,261,1.0,5.0,68,0.00,CLR,,0.00,WeatherDisplay:10.37,2013-12-31 09:57:00,
2013-12-31 21:02:00,75.9,64.6,29.83,North,357,0.0,3.0,68,0.00,CLR,,0.00,WeatherDisplay:10.37,2013-12-31 10:02:00,
2013-12-31 21:07:00,75.9,64.6,29.83,NE,51,0.0,2.0,68,0.00,CLR,,0.00,WeatherDisplay:10.37,2013-12-31 10:07:00,
2013-12-31 21:12:00,75.7,64.4,29.83,East,79,0.0,2.0,68,0.00,CLR,,0.00,WeatherDisplay:10.37,2013-12-31 10:12:00,
2013-12-31 21:17:00,75.7,64.4,29.83,ENE,59,0.0,3.0,68,0.00,CLR,,0.00,WeatherDisplay:10.37,2013-12-31 10:17:00,
2013-12-31 21:22:00,75.6,64.3,29.83,NNE,33,0.0,3.0,68,0.00,CLR,,0.00,WeatherDisplay:10.37,2013-12-31 10:22:00,
2013-12-31 21:27:00,75.4,64.5,29.83,NE,54,0.0,3.0,69,0.00,CLR,,0.00,WeatherDisplay:10.37,2013-12-31 10:27:00,
2013-12-31 21:32:00,75.4,64.5,29.84,ESE,119,0.0,2.0,69,0.00,CLR,,0.00,WeatherDisplay:10.37,2013-12-31 10:32:00,
2013-12-31 21:37:00,75.4,64.5,29.84,ENE,75,0.0,3.0,69,0.00,CLR,,0.00,WeatherDisplay:10.37,2013-12-31 10:37:00,
2013-12-31 21:42:00,75.4,64.5,29.84,NE,44,0.0,4.0,69,0.00,CLR,,0.00,WeatherDisplay:10.37,2013-12-31 10:42:00,
2013-12-31 21:52:00,75.0,64.2,29.85,ENE,60,1.0,2.0,69,0.00,CLR,,0.00,WeatherDisplay:10.37,2013-12-31 10:52:00,
2013-12-31 21:57:00,75.0,64.2,29.85,NE,53,1.0,4.0,69,0.00,CLR,,0.00,WeatherDisplay:10.37,2013-12-31 10:57:00,
2013-12-31 22:02:00,75.0,64.2,29.85,NE,48,0.0,3.0,69,0.00,CLR,,0.00,WeatherDisplay:10.37,2013-12-31 11:02:00,
2013-12-31 22:07:00,75.0,64.2,29.85,NE,55,0.0,5.0,69,0.00,CLR,,0.00,WeatherDisplay:10.37,2013-12-31 11:07:00,
2013-12-31 22:12:00,75.0,64.2,29.85,ENE,57,0.0,4.0,69,0.00,CLR,,0.00,WeatherDisplay:10.37,2013-12-31 11:12:00,
2013-12-31 22:17:00,75.0,64.2,29.86,ENE,57,0.0,4.0,69,0.00,CLR,,0.00,WeatherDisplay:10.37,2013-12-31 11:17:00,
2013-12-31 22:22:00,75.0,64.2,29.86,NW,309,0.0,4.0,69,0.00,CLR,,0.00,WeatherDisplay:10.37,2013-12-31 11:22:00,
2013-12-31 22:27:00,75.0,64.6,29.86,North,9,1.0,5.0,70,0.00,CLR,,0.00,WeatherDisplay:10.37,2013-12-31 11:27:00,
2013-12-31 22:32:00,74.8,64.8,29.86,NE,39,1.0,5.0,71,0.00,CLR,,0.00,WeatherDisplay:10.37,2013-12-31 11:32:00,
2013-12-31 22:37:00,74.5,64.5,29.86,NE,48,0.0,2.0,71,0.00,CLR,,0.00,WeatherDisplay:10.37,2013-12-31 11:37:00,
2013-12-31 22:42:00,74.5,64.5,29.86,ENE,61,0.0,1.0,71,0.00,CLR,,0.00,WeatherDisplay:10.37,2013-12-31 11:42:00,
2013-12-31 22:52:00,74.2,64.6,29.86,ESE,102,0.0,0.0,72,0.00,CLR,,0.00,WeatherDisplay:10.37,2013-12-31 11:52:00,
2013-12-31 22:57:00,74.1,64.5,29.86,ESE,120,0.0,2.0,72,0.00,CLR,,0.00,WeatherDisplay:10.37,2013-12-31 11:57:00,
2013-12-31 23:02:00,73.9,64.3,29.86,ESE,105,0.0,2.0,72,0.00,CLR,,0.00,WeatherDisplay:10.37,2013-12-31 12:02:00,
2013-12-31 23:07:00,73.9,64.7,29.86,ENE,77,1.0,4.0,73,0.00,CLR,,0.00,WeatherDisplay:10.37,2013-12-31 12:07:00,
2013-12-31 23:12:00,73.8,64.6,29.86,East,79,0.0,2.0,73,0.00,CLR,,0.00,WeatherDisplay:10.37,2013-12-31 12:12:00,
2013-12-31 23:17:00,73.6,64.4,29.86,ENE,71,0.0,2.0,73,0.00,CLR,,0.00,WeatherDisplay:10.37,2013-12-31 12:17:00,
2013-12-31 23:22:00,73.6,64.4,29.86,ENE,65,0.0,0.0,73,0.00,CLR,,0.00,WeatherDisplay:10.37,2013-12-31 12:22:00,
2013-12-31 23:27:00,73.6,64.4,29.86,NNE,14,0.0,2.0,73,0.00,CLR,,0.00,WeatherDisplay:10.37,2013-12-31 12:27:00,
2013-12-31 23:32:00,73.4,64.2,29.86,North,0,1.0,2.0,73,0.00,CLR,,0.00,WeatherDisplay:10.37,2013-12-31 12:32:00,
2013-12-31 23:37:00,73.2,64.0,29.86,North,5,0.0,0.0,73,0.00,CLR,,0.00,WeatherDisplay:10.37,2013-12-31 12:37:00,
2013-12-31 23:42:00,73.2,64.0,29.86,East,79,0.0,0.0,73,0.00,CLR,,0.00,WeatherDisplay:10.37,2013-12-31 12:42:00,
2013-12-31 23:52:00,73.2,64.0,29.86,East,88,0.0,0.0,73,0.00,CLR,,0.00,WeatherDisplay:10.37,2013-12-31 12:52:00,
2013-12-31 23:57:00,73.2,64.0,29.86,SE,126,0.0,1.0,73,0.00,CLR,,0.00,WeatherDisplay:10.37,2013-12-31 12:57:00,